Location: Wildlife_Club
(35.6000°N, 81.4330°W)
Time: 16:17:28
(UTC-04:00)

Vanguard 2 - Pass Details

Date: 04 July 2019
Orbit: 553 x 2938 km, 32.9° (Epoch: 15 July)

Event Time Altitude Azimuth Distance (km) Brightness Sun altitude
Exits shadow 05:04:12 17° 212° (SSW) 1,722 8.7 -12.7°
Maximum altitude 05:06:57 29° 163° (SSE) 1,130 8.2 -12.2°
Drops below altitude 10° 05:10:28 10° 101° (E) 1,840 10.1 -11.7°
Sets 05:12:46 0° 89° (E) 2,715 11.3 -11.3°
